| time (UTC) | temp F | wind direction | speed MPH | gust MPH | rain 1hr in | rain 24hr in | rain mn in | humidity % | barometer mb |
| 20260510192003 | 46 | 217 | 2.0 | 5.0 | 0.00 | 0.00 | 0.00 | 57 | 1008.2 |
| 20260510191714 | 46 | 214 | 2.0 | 7.0 | 0.00 | 0.00 | 0.00 | 57 | 1008.2 |
| 20260510191003 | 46 | 213 | 3.0 | 7.0 | 0.00 | 0.00 | 0.00 | 57 | 1008.1 |
| 20260510190503 | 47 | 218 | 3.0 | 7.0 | 0.00 | 0.00 | 0.00 | 57 | 1008.0 |
| 20260510190003 | 47 | 235 | 3.0 | 7.0 | 0.00 | 0.00 | 0.00 | 59 | 1008.1 |
| 20260510185503 | 47 | 238 | 3.0 | 9.0 | 0.00 | 0.00 | 0.00 | 60 | 1008.2 |
| 20260510185003 | 47 | 225 | 3.0 | 9.0 | 0.00 | 0.00 | 0.00 | 60 | 1008.0 |
| 20260510184713 | 47 | 215 | 3.0 | 9.0 | 0.00 | 0.00 | 0.00 | 61 | 1008.0 |
| 20260510184003 | 48 | 208 | 3.0 | 9.0 | 0.00 | 0.00 | 0.00 | 65 | 1008.3 |
| 20260510183503 | 48 | 211 | 3.0 | 9.0 | 0.00 | 0.00 | 0.00 | 65 | 1008.1 |
| 20260510183003 | 48 | 213 | 3.0 | 6.0 | 0.00 | 0.00 | 0.00 | 66 | 1008.0 |
| 20260510182503 | 48 | 221 | 3.0 | 6.0 | 0.00 | 0.00 | 0.00 | 66 | 1008.0 |
| 20260510182003 | 48 | 222 | 3.0 | 7.0 | 0.00 | 0.00 | 0.00 | 66 | 1008.2 |
| 20260510181503 | 49 | 219 | 3.0 | 7.0 | 0.00 | 0.00 | 0.00 | 65 | 1008.2 |
| 20260510181003 | 49 | 211 | 3.0 | 7.0 | 0.00 | 0.00 | 0.00 | 65 | 1008.1 |
| 20260510180503 | 49 | 194 | 4.0 | 7.0 | 0.00 | 0.00 | 0.00 | 65 | 1008.1 |
| 20260510180003 | 49 | 189 | 3.0 | 7.0 | 0.00 | 0.00 | 0.00 | 65 | 1008.0 |
| 20260510175503 | 49 | 195 | 3.0 | 7.0 | 0.00 | 0.00 | 0.00 | 64 | 1008.0 |
| 20260510175003 | 49 | 188 | 4.0 | 11.0 | 0.00 | 0.00 | 0.00 | 64 | 1008.3 |
| 20260510174713 | 49 | 186 | 4.0 | 11.0 | 0.00 | 0.00 | 0.00 | 64 | 1008.1 |
| 20260510174003 | 49 | 202 | 3.0 | 12.0 | 0.00 | 0.00 | 0.00 | 63 | 1008.2 |
| 20260510173503 | 49 | 203 | 3.0 | 12.0 | 0.00 | 0.00 | 0.00 | 63 | 1008.1 |
| 20260510173003 | 49 | 197 | 4.0 | 9.0 | 0.00 | 0.00 | 0.00 | 63 | 1008.4 |
| 20260510172503 | 49 | 207 | 4.0 | 10.0 | 0.00 | 0.00 | 0.00 | 62 | 1008.4 |
| 20260510172004 | 50 | 198 | 4.0 | 11.0 | 0.00 | 0.00 | 0.00 | 61 | 1008.5 |
| 20260510171503 | 50 | 191 | 4.0 | 11.0 | 0.00 | 0.00 | 0.00 | 60 | 1008.5 |
| 20260510171003 | 50 | 194 | 3.0 | 9.0 | 0.00 | 0.00 | 0.00 | 60 | 1008.5 |
| 20260510170503 | 50 | 197 | 3.0 | 9.0 | 0.00 | 0.00 | 0.00 | 59 | 1008.4 |
| 20260510170003 | 50 | 210 | 3.0 | 7.0 | 0.00 | 0.00 | 0.00 | 59 | 1008.6 |
| 20260510165503 | 51 | 229 | 3.0 | 10.0 | 0.00 | 0.00 | 0.00 | 58 | 1008.5 |
| 20260510165214 | 51 | 221 | 3.0 | 10.0 | 0.00 | 0.00 | 0.00 | 58 | 1008.5 |
| 20260510164503 | 50 | 197 | 3.0 | 6.0 | 0.00 | 0.00 | 0.00 | 58 | 1008.8 |
| 20260510164003 | 50 | 206 | 3.0 | 9.0 | 0.00 | 0.00 | 0.00 | 59 | 1008.9 |
| 20260510163503 | 50 | 206 | 3.0 | 9.0 | 0.00 | 0.00 | 0.00 | 59 | 1009.0 |
| 20260510163003 | 50 | 203 | 3.0 | 10.0 | 0.00 | 0.00 | 0.00 | 58 | 1009.1 |
| 20260510162503 | 50 | 201 | 4.0 | 10.0 | 0.00 | 0.00 | 0.00 | 58 | 1009.0 |
| 20260510162003 | 51 | 211 | 3.0 | 9.0 | 0.00 | 0.00 | 0.00 | 57 | 1009.1 |
| 20260510161503 | 51 | 212 | 3.0 | 10.0 | 0.00 | 0.00 | 0.00 | 56 | 1009.0 |
| 20260510161213 | 51 | 208 | 3.0 | 12.0 | 0.00 | 0.00 | 0.00 | 55 | 1008.9 |
| 20260510160503 | 52 | 209 | 4.0 | 12.0 | 0.00 | 0.00 | 0.00 | 53 | 1009.0 |
| 20260510160003 | 52 | 215 | 4.0 | 8.0 | 0.00 | 0.00 | 0.00 | 52 | 1009.0 |
| 20260510155503 | 52 | 233 | 3.0 | 8.0 | 0.00 | 0.00 | 0.00 | 51 | 1008.9 |
| 20260510155003 | 52 | 224 | 4.0 | 8.0 | 0.00 | 0.00 | 0.00 | 50 | 1009.0 |
| 20260510154503 | 53 | 199 | 4.0 | 9.0 | 0.00 | 0.00 | 0.00 | 49 | 1009.1 |
| 20260510154003 | 53 | 195 | 4.0 | 9.0 | 0.00 | 0.00 | 0.00 | 50 | 1008.8 |
| 20260510153503 | 53 | 201 | 4.0 | 12.0 | 0.00 | 0.00 | 0.00 | 51 | 1009.1 |
| 20260510153003 | 53 | 200 | 5.0 | 12.0 | 0.00 | 0.00 | 0.00 | 50 | 1009.2 |
| 20260510152714 | 53 | 208 | 5.0 | 12.0 | 0.00 | 0.00 | 0.00 | 49 | 1009.1 |
| 20260510152213 | 53 | 213 | 4.0 | 10.0 | 0.00 | 0.00 | 0.00 | 50 | 1009.2 |
| 20260510151503 | 53 | 197 | 3.0 | 10.0 | 0.00 | 0.00 | 0.00 | 51 | 1009.3 |
| 20260510151003 | 53 | 199 | 5.0 | 10.0 | 0.00 | 0.00 | 0.00 | 51 | 1009.3 |
| 20260510150003 | 53 | 209 | 5.0 | 11.0 | 0.00 | 0.00 | 0.00 | 54 | 1009.4 |
| 20260510145503 | 53 | 206 | 4.0 | 11.0 | 0.00 | 0.00 | 0.00 | 53 | 1009.3 |
| 20260510145003 | 52 | 209 | 4.0 | 11.0 | 0.00 | 0.00 | 0.00 | 55 | 1009.5 |
| 20260510144503 | 52 | 211 | 3.0 | 10.0 | 0.00 | 0.00 | 0.00 | 57 | 1009.5 |
| 20260510144003 | 52 | 201 | 2.0 | 9.0 | 0.00 | 0.00 | 0.00 | 59 | 1009.6 |
| 20260510143503 | 52 | 208 | 3.0 | 9.0 | 0.00 | 0.00 | 0.00 | 59 | 1009.7 |
| 20260510143003 | 52 | 212 | 4.0 | 11.0 | 0.00 | 0.00 | 0.00 | 59 | 1009.8 |
| 20260510142503 | 52 | 202 | 3.0 | 11.0 | 0.00 | 0.00 | 0.00 | 61 | 1009.9 |
| 20260510142003 | 52 | 200 | 4.0 | 9.0 | 0.00 | 0.00 | 0.00 | 61 | 1010.0 |
| 20260510141507 | 51 | 196 | 4.0 | 9.0 | 0.00 | 0.00 | 0.00 | 63 | 1010.0 |
| 20260510141004 | 51 | 187 | 3.0 | 6.0 | 0.00 | 0.00 | 0.00 | 69 | 1010.1 |
| 20260510140714 | 50 | 192 | 2.0 | 6.0 | 0.00 | 0.00 | 0.00 | 76 | 1009.9 |
| 20260510140006 | 50 | 190 | 3.0 | 5.0 | 0.00 | 0.00 | 0.00 | 80 | 1010.1 |
| 20260510135504 | 49 | 181 | 2.0 | 7.0 | 0.00 | 0.00 | 0.00 | 81 | 1010.2 |
| 20260510135003 | 48 | 175 | 1.0 | 7.0 | 0.00 | 0.00 | 0.00 | 82 | 1010.1 |
| 20260510134713 | 48 | 165 | 1.0 | 3.0 | 0.00 | 0.00 | 0.00 | 84 | 1010.1 |
| 20260510134006 | 47 | 147 | 2.0 | 3.0 | 0.00 | 0.00 | 0.00 | 82 | 1010.3 |
| 20260510133505 | 47 | 146 | 1.0 | 3.0 | 0.00 | 0.00 | 0.00 | 82 | 1010.3 |
| 20260510133003 | 47 | 156 | 1.0 | 5.0 | 0.00 | 0.00 | 0.00 | 82 | 1010.5 |
| 20260510132503 | 47 | 169 | 2.0 | 5.0 | 0.00 | 0.00 | 0.00 | 82 | 1010.7 |
| 20260510132003 | 48 | 153 | 4.0 | 10.0 | 0.00 | 0.00 | 0.00 | 80 | 1010.6 |
| 20260510131503 | 48 | 155 | 4.0 | 10.0 | 0.00 | 0.00 | 0.00 | 79 | 1010.7 |
| 20260510131005 | 49 | 185 | 3.0 | 8.0 | 0.00 | 0.00 | 0.00 | 80 | 1010.9 |
| 20260510130503 | 50 | 223 | 2.0 | 5.0 | 0.00 | 0.00 | 0.00 | 76 | 1010.9 |
| 20260510130003 | 50 | 234 | 3.0 | 6.0 | 0.00 | 0.00 | 0.00 | 71 | 1010.9 |
| 20260510125003 | 51 | 242 | 2.0 | 8.0 | 0.00 | 0.00 | 0.00 | 64 | 1011.0 |
| 20260510124507 | 51 | 229 | 3.0 | 9.0 | 0.00 | 0.00 | 0.00 | 62 | 1010.9 |
| 20260510124003 | 52 | 215 | 4.0 | 11.0 | 0.00 | 0.00 | 0.00 | 61 | 1011.0 |
| 20260510123503 | 52 | 192 | 5.0 | 13.0 | 0.00 | 0.00 | 0.00 | 58 | 1011.1 |
| 20260510123214 | 53 | 180 | 5.0 | 13.0 | 0.00 | 0.00 | 0.00 | 55 | 1011.0 |
| 20260510122506 | 53 | 161 | 6.0 | 15.0 | 0.00 | 0.00 | 0.00 | 54 | 1010.9 |
| 20260510122214 | 53 | 159 | 7.0 | 16.0 | 0.00 | 0.00 | 0.00 | 53 | 1011.0 |
| 20260510121503 | 55 | 181 | 5.0 | 16.0 | 0.00 | 0.00 | 0.00 | 51 | 1010.9 |
| 20260510121003 | 54 | 183 | 5.0 | 13.0 | 0.00 | 0.00 | 0.00 | 53 | 1011.1 |
| 20260510120503 | 53 | 168 | 5.0 | 13.0 | 0.00 | 0.00 | 0.00 | 54 | 1011.2 |
| 20260510120003 | 54 | 168 | 5.0 | 12.0 | 0.00 | 0.00 | 0.00 | 54 | 1011.1 |
| 20260510115713 | 52 | 169 | 6.0 | 12.0 | 0.00 | 0.00 | 0.00 | 54 | 1011.2 |
| 20260510115003 | 52 | 170 | 7.0 | 16.0 | 0.00 | 0.00 | 0.00 | 54 | 1011.4 |
| 20260510114503 | 52 | 171 | 7.0 | 16.0 | 0.00 | 0.00 | 0.00 | 53 | 1011.4 |
| 20260510114004 | 53 | 175 | 5.0 | 16.0 | 0.00 | 0.00 | 0.00 | 51 | 1011.7 |
| 20260510113503 | 52 | 170 | 4.0 | 12.0 | 0.00 | 0.00 | 0.00 | 53 | 1011.7 |
| 20260510113003 | 52 | 175 | 6.0 | 16.0 | 0.00 | 0.00 | 0.00 | 54 | 1011.7 |
| 20260510112713 | 52 | 169 | 6.0 | 16.0 | 0.00 | 0.00 | 0.00 | 54 | 1011.7 |
| 20260510112003 | 52 | 171 | 5.0 | 11.0 | 0.00 | 0.00 | 0.00 | 53 | 1012.0 |
| 20260510111713 | 52 | 186 | 5.0 | 10.0 | 0.00 | 0.00 | 0.00 | 53 | 1012.0 |
| 20260510111003 | 52 | 163 | 6.0 | 12.0 | 0.00 | 0.00 | 0.00 | 53 | 1012.3 |
| 20260510110712 | 52 | 154 | 6.0 | 12.0 | 0.00 | 0.00 | 0.00 | 53 | 1012.1 |
| 20260510110003 | 52 | 171 | 6.0 | 13.0 | 0.00 | 0.00 | 0.00 | 53 | 1012.3 |
| 20260510105503 | 53 | 190 | 6.0 | 13.0 | 0.00 | 0.00 | 0.00 | 53 | 1012.2 |
| 20260510105003 | 53 | 185 | 7.0 | 17.0 | 0.00 | 0.00 | 0.00 | 52 | 1012.3 |
| 20260510104503 | 53 | 176 | 7.0 | 17.0 | 0.00 | 0.00 | 0.00 | 51 | 1012.3 |
| 20260510104003 | 53 | 181 | 7.0 | 15.0 | 0.00 | 0.00 | 0.00 | 51 | 1012.3 |
| 20260510103712 | 53 | 178 | 6.0 | 15.0 | 0.00 | 0.00 | 0.00 | 50 | 1012.3 |
| 20260510103213 | 54 | 177 | 6.0 | 15.0 | 0.00 | 0.00 | 0.00 | 49 | 1012.3 |
| 20260510102503 | 53 | 169 | 7.0 | 13.0 | 0.00 | 0.00 | 0.00 | 51 | 1012.6 |
| 20260510102003 | 52 | 171 | 6.0 | 12.0 | 0.00 | 0.00 | 0.00 | 51 | 1012.7 |
| 20260510101503 | 52 | 172 | 5.0 | 11.0 | 0.00 | 0.00 | 0.00 | 51 | 1012.6 |
| 20260510101213 | 52 | 167 | 6.0 | 11.0 | 0.00 | 0.00 | 0.00 | 52 | 1012.8 |
| 20260510100503 | 52 | 180 | 4.0 | 10.0 | 0.00 | 0.00 | 0.00 | 53 | 1012.8 |
| 20260510100003 | 52 | 189 | 4.0 | 14.0 | 0.00 | 0.00 | 0.00 | 53 | 1012.9 |
| 20260510095503 | 52 | 179 | 5.0 | 14.0 | 0.00 | 0.00 | 0.00 | 52 | 1012.7 |
| 20260510095004 | 52 | 171 | 5.0 | 12.0 | 0.00 | 0.00 | 0.00 | 52 | 1012.9 |
| 20260510094503 | 52 | 182 | 5.0 | 11.0 | 0.00 | 0.00 | 0.00 | 52 | 1013.1 |
| 20260510094003 | 52 | 182 | 6.0 | 11.0 | 0.00 | 0.00 | 0.00 | 51 | 1013.0 |
| 20260510093503 | 53 | 179 | 7.0 | 11.0 | 0.00 | 0.00 | 0.00 | 50 | 1013.0 |
| 20260510093004 | 53 | 186 | 7.0 | 12.0 | 0.00 | 0.00 | 0.00 | 50 | 1013.1 |
| 20260510092503 | 53 | 189 | 6.0 | 12.0 | 0.00 | 0.00 | 0.00 | 49 | 1013.1 |
| 20260510092213 | 53 | 185 | 6.0 | 12.0 | 0.00 | 0.00 | 0.00 | 49 | 1013.1 |
| 20260510091503 | 53 | 187 | 6.0 | 12.0 | 0.00 | 0.00 | 0.00 | 48 | 1013.0 |
| 20260510091003 | 54 | 176 | 5.0 | 12.0 | 0.00 | 0.00 | 0.00 | 46 | 1013.1 |
| 20260510090503 | 55 | 178 | 5.0 | 12.0 | 0.00 | 0.00 | 0.00 | 45 | 1012.9 |
| 20260510090003 | 55 | 176 | 5.0 | 9.0 | 0.00 | 0.00 | 0.00 | 45 | 1012.9 |
| 20260510085503 | 53 | 170 | 4.0 | 9.0 | 0.00 | 0.00 | 0.00 | 46 | 1013.0 |
| 20260510085003 | 54 | 204 | 4.0 | 12.0 | 0.00 | 0.00 | 0.00 | 46 | 1013.2 |
| 20260510084503 | 54 | 199 | 5.0 | 12.0 | 0.00 | 0.00 | 0.00 | 47 | 1013.2 |
| 20260510084213 | 54 | 195 | 5.0 | 12.0 | 0.00 | 0.00 | 0.00 | 48 | 1013.1 |
| 20260510083503 | 53 | 206 | 4.0 | 10.0 | 0.00 | 0.00 | 0.00 | 46 | 1013.5 |
| 20260510083003 | 54 | 206 | 4.0 | 10.0 | 0.00 | 0.00 | 0.00 | 46 | 1013.4 |
| 20260510082503 | 54 | 198 | 4.0 | 10.0 | 0.00 | 0.00 | 0.00 | 45 | 1013.4 |
| 20260510082212 | 54 | 193 | 4.0 | 10.0 | 0.00 | 0.00 | 0.00 | 46 | 1013.5 |
| 20260510081503 | 54 | 191 | 4.0 | 11.0 | 0.00 | 0.00 | 0.00 | 44 | 1013.5 |
| 20260510081003 | 53 | 187 | 5.0 | 11.0 | 0.00 | 0.00 | 0.00 | 44 | 1013.7 |
| 20260510080503 | 53 | 181 | 4.0 | 11.0 | 0.00 | 0.00 | 0.00 | 44 | 1013.8 |
| 20260510080003 | 53 | 190 | 4.0 | 12.0 | 0.00 | 0.00 | 0.00 | 45 | 1014.1 |
| 20260510075503 | 52 | 189 | 5.0 | 12.0 | 0.00 | 0.00 | 0.00 | 45 | 1013.7 |
| 20260510075003 | 52 | 183 | 5.0 | 12.0 | 0.00 | 0.00 | 0.00 | 44 | 1013.8 |
| 20260510074713 | 52 | 183 | 4.0 | 11.0 | 0.00 | 0.00 | 0.00 | 45 | 1014.0 |
| 20260510074003 | 51 | 170 | 5.0 | 13.0 | 0.00 | 0.00 | 0.00 | 44 | 1013.9 |
| 20260510073503 | 51 | 163 | 4.0 | 13.0 | 0.00 | 0.00 | 0.00 | 45 | 1014.2 |
| 20260510073214 | 51 | 150 | 4.0 | 10.0 | 0.00 | 0.00 | 0.00 | 46 | 1014.2 |
| 20260510072503 | 50 | 165 | 3.0 | 8.0 | 0.00 | 0.00 | 0.00 | 47 | 1014.3 |
| 20260510072003 | 51 | 179 | 4.0 | 11.0 | 0.00 | 0.00 | 0.00 | 49 | 1014.4 |
| 20260510071504 | 50 | 169 | 5.0 | 11.0 | 0.00 | 0.00 | 0.00 | 48 | 1014.3 |
| 20260510071214 | 50 | 172 | 5.0 | 11.0 | 0.00 | 0.00 | 0.00 | 48 | 1014.4 |
| 20260510070503 | 50 | 192 | 5.0 | 9.0 | 0.00 | 0.00 | 0.00 | 49 | 1014.8 |
| 20260510070004 | 50 | 200 | 4.0 | 8.0 | 0.00 | 0.00 | 0.00 | 48 | 1014.7 |
| 20260510065503 | 51 | 196 | 3.0 | 8.0 | 0.00 | 0.00 | 0.00 | 49 | 1014.9 |
| 20260510065003 | 50 | 172 | 3.0 | 6.0 | 0.00 | 0.00 | 0.00 | 53 | 1014.9 |
| 20260510064503 | 49 | 159 | 2.0 | 6.0 | 0.00 | 0.00 | 0.00 | 55 | 1014.8 |
| 20260510064003 | 49 | 148 | 3.0 | 7.0 | 0.00 | 0.00 | 0.00 | 59 | 1014.9 |
| 20260510063503 | 48 | 139 | 4.0 | 8.0 | 0.00 | 0.00 | 0.00 | 60 | 1014.8 |
| 20260510063003 | 48 | 131 | 5.0 | 8.0 | 0.00 | 0.00 | 0.00 | 61 | 1014.8 |
| 20260510062503 | 48 | 133 | 4.0 | 9.0 | 0.00 | 0.00 | 0.00 | 61 | 1014.9 |
| 20260510062003 | 47 | 135 | 4.0 | 9.0 | 0.00 | 0.00 | 0.00 | 63 | 1015.1 |
| 20260510061503 | 47 | 151 | 3.0 | 6.0 | 0.00 | 0.00 | 0.00 | 61 | 1015.2 |
| 20260510061003 | 47 | 175 | 2.0 | 6.0 | 0.00 | 0.00 | 0.00 | 64 | 1015.3 |
| 20260510060503 | 46 | 166 | 3.0 | 6.0 | 0.00 | 0.00 | 0.00 | 64 | 1015.3 |
| 20260510060003 | 46 | 140 | 3.0 | 6.0 | 0.00 | 0.00 | 0.00 | 67 | 1015.3 |
| 20260510055503 | 46 | 155 | 2.0 | 5.0 | 0.00 | 0.00 | 0.00 | 67 | 1015.6 |
| 20260510055003 | 46 | 168 | 2.0 | 5.0 | 0.00 | 0.00 | 0.00 | 69 | 1015.6 |
| 20260510054503 | 45 | 129 | 2.0 | 5.0 | 0.00 | 0.00 | 0.00 | 70 | 1015.6 |
| 20260510054003 | 44 | 108 | 2.0 | 4.0 | 0.00 | 0.00 | 0.00 | 71 | 1015.7 |
| 20260510053712 | 44 | 115 | 2.0 | 4.0 | 0.00 | 0.00 | 0.00 | 72 | 1015.6 |
| 20260510053003 | 42 | 102 | 1.0 | 4.0 | 0.00 | 0.00 | 0.00 | 73 | 1015.5 |
| 20260510052503 | 41 | 79 | 0.0 | 2.0 | 0.00 | 0.00 | 0.00 | 75 | 1015.7 |
| 20260510052003 | 40 | 56 | 1.0 | 2.0 | 0.00 | 0.00 | 0.00 | 78 | 1015.6 |
| 20260510051503 | 40 | 46 | 1.0 | 2.0 | 0.00 | 0.00 | 0.00 | 78 | 1015.9 |
| 20260510051003 | 39 | 38 | 0.0 | 2.0 | 0.00 | 0.00 | 0.00 | 79 | 1015.8 |
| 20260510050503 | 38 | 36 | 1.0 | 3.0 | 0.00 | 0.00 | 0.00 | 82 | 1015.9 |
| 20260510050003 | 38 | 30 | 2.0 | 4.0 | 0.00 | 0.00 | 0.00 | 80 | 1015.9 |
| 20260510045715 | 37 | 26 | 2.0 | 4.0 | 0.00 | 0.00 | 0.00 | 82 | 1016.0 |
| 20260510045003 | 35 | 32 | 2.0 | 4.0 | 0.00 | 0.00 | 0.00 | 84 | 1016.1 |
| 20260510044503 | 34 | 35 | 2.0 | 3.0 | 0.00 | 0.00 | 0.00 | 86 | 1016.1 |
| 20260510044003 | 33 | 33 | 1.0 | 2.0 | 0.00 | 0.00 | 0.00 | 87 | 1016.2 |
| 20260510043503 | 33 | 37 | 2.0 | 3.0 | 0.00 | 0.00 | 0.00 | 88 | 1016.4 |
| 20260510043213 | 32 | 45 | 2.0 | 3.0 | 0.00 | 0.00 | 0.00 | 87 | 1016.2 |
| 20260510042503 | 32 | 46 | 2.0 | 3.0 | 0.00 | 0.00 | 0.00 | 88 | 1016.1 |
| 20260510042003 | 32 | 45 | 1.0 | 3.0 | 0.00 | 0.00 | 0.00 | 88 | 1016.2 |
| 20260510041503 | 32 | 44 | 1.0 | 2.0 | 0.00 | 0.00 | 0.00 | 89 | 1016.3 |
| 20260510041003 | 32 | 40 | 1.0 | 3.0 | 0.00 | 0.00 | 0.00 | 88 | 1016.3 |
| 20260510040503 | 31 | 45 | 1.0 | 3.0 | 0.00 | 0.00 | 0.00 | 89 | 1016.2 |
| 20260510040003 | 31 | 38 | 2.0 | 3.0 | 0.00 | 0.00 | 0.00 | 89 | 1016.5 |
| 20260510035503 | 31 | 31 | 2.0 | 3.0 | 0.00 | 0.00 | 0.00 | 90 | 1016.2 |
| 20260510035003 | 31 | 30 | 2.0 | 3.0 | 0.00 | 0.00 | 0.00 | 89 | 1016.5 |
| 20260510034503 | 31 | 32 | 2.0 | 3.0 | 0.00 | 0.00 | 0.00 | 88 | 1016.5 |
| 20260510034003 | 31 | 38 | 2.0 | 3.0 | 0.00 | 0.00 | 0.00 | 88 | 1016.6 |
| 20260510033503 | 31 | 28 | 1.0 | 2.0 | 0.00 | 0.00 | 0.00 | 88 | 1016.8 |
| 20260510033003 | 32 | 23 | 2.0 | 3.0 | 0.00 | 0.00 | 0.00 | 89 | 1016.8 |
| 20260510032714 | 32 | 23 | 2.0 | 3.0 | 0.00 | 0.00 | 0.00 | 89 | 1016.9 |
| 20260510032003 | 31 | 25 | 2.0 | 3.0 | 0.00 | 0.00 | 0.00 | 91 | 1016.8 |
| 20260510031503 | 31 | 30 | 2.0 | 3.0 | 0.00 | 0.00 | 0.00 | 91 | 1016.9 |
| 20260510031003 | 31 | 32 | 1.0 | 2.0 | 0.00 | 0.00 | 0.00 | 89 | 1016.9 |
| 20260510030503 | 31 | 35 | 1.0 | 2.0 | 0.00 | 0.00 | 0.00 | 89 | 1017.0 |
| 20260510030003 | 31 | 38 | 0.0 | 2.0 | 0.00 | 0.00 | 0.00 | 93 | 1016.9 |
| 20260510025503 | 30 | 53 | 0.0 | 2.0 | 0.00 | 0.00 | 0.00 | 94 | 1017.1 |
| 20260510025004 | 31 | 53 | 0.0 | 2.0 | 0.00 | 0.00 | 0.00 | 91 | 1017.2 |
| 20260510024503 | 31 | 42 | 0.0 | 2.0 | 0.00 | 0.00 | 0.00 | 93 | 1017.2 |
| 20260510024003 | 31 | 39 | 0.0 | 2.0 | 0.00 | 0.00 | 0.00 | 95 | 1017.1 |
| 20260510023503 | 31 | 41 | 1.0 | 2.0 | 0.00 | 0.00 | 0.00 | 92 | 1017.1 |
| 20260510023003 | 31 | 42 | 1.0 | 2.0 | 0.00 | 0.00 | 0.00 | 91 | 1017.1 |
| 20260510022503 | 31 | 36 | 1.0 | 2.0 | 0.00 | 0.00 | 0.00 | 90 | 1017.3 |
| 20260510022212 | 31 | 36 | 1.0 | 2.0 | 0.00 | 0.00 | 0.00 | 90 | 1017.2 |
| 20260510021503 | 31 | 40 | 1.0 | 3.0 | 0.00 | 0.00 | 0.00 | 90 | 1017.4 |
| 20260510021003 | 32 | 40 | 1.0 | 3.0 | 0.00 | 0.00 | 0.00 | 87 | 1017.3 |
| 20260510020503 | 32 | 35 | 1.0 | 2.0 | 0.00 | 0.00 | 0.00 | 92 | 1017.4 |
| 20260510020214 | 33 | 29 | 1.0 | 2.0 | 0.00 | 0.00 | 0.00 | 91 | 1017.5 |
| 20260510015503 | 32 | 33 | 2.0 | 3.0 | 0.00 | 0.00 | 0.00 | 91 | 1017.4 |
| 20260510015003 | 31 | 41 | 1.0 | 3.0 | 0.00 | 0.00 | 0.00 | 91 | 1017.6 |
| 20260510014713 | 32 | 42 | 1.0 | 2.0 | 0.00 | 0.00 | 0.00 | 90 | 1017.7 |
| 20260510014003 | 32 | 46 | 1.0 | 2.0 | 0.00 | 0.00 | 0.00 | 90 | 1017.9 |
| 20260510013503 | 32 | 45 | 1.0 | 2.0 | 0.00 | 0.00 | 0.00 | 89 | 1017.8 |
| 20260510013214 | 32 | 45 | 1.0 | 3.0 | 0.00 | 0.00 | 0.00 | 89 | 1017.9 |
| 20260510012504 | 33 | 37 | 1.0 | 3.0 | 0.00 | 0.00 | 0.00 | 90 | 1017.9 |
| 20260510012003 | 33 | 34 | 1.0 | 3.0 | 0.00 | 0.00 | 0.00 | 89 | 1018.1 |
| 20260510011503 | 33 | 36 | 1.0 | 3.0 | 0.00 | 0.00 | 0.00 | 90 | 1018.1 |
| 20260510011003 | 32 | 38 | 2.0 | 3.0 | 0.00 | 0.00 | 0.00 | 89 | 1018.1 |
| 20260510010503 | 32 | 35 | 2.0 | 3.0 | 0.00 | 0.00 | 0.00 | 89 | 1018.3 |
| 20260510010003 | 32 | 30 | 2.0 | 3.0 | 0.00 | 0.00 | 0.00 | 88 | 1018.2 |
| 20260510005713 | 33 | 30 | 2.0 | 3.0 | 0.00 | 0.00 | 0.00 | 87 | 1018.3 |
| 20260510005003 | 33 | 26 | 2.0 | 3.0 | 0.00 | 0.00 | 0.00 | 86 | 1018.3 |
| 20260510004503 | 34 | 28 | 2.0 | 3.0 | 0.00 | 0.00 | 0.00 | 85 | 1018.3 |
| 20260510004003 | 34 | 30 | 2.0 | 3.0 | 0.00 | 0.00 | 0.00 | 86 | 1018.4 |
| 20260510003503 | 34 | 29 | 2.0 | 3.0 | 0.00 | 0.00 | 0.00 | 86 | 1018.3 |
| 20260510003004 | 34 | 32 | 1.0 | 3.0 | 0.00 | 0.00 | 0.00 | 87 | 1018.5 |
| 20260510002503 | 34 | 35 | 1.0 | 3.0 | 0.00 | 0.00 | 0.00 | 87 | 1018.6 |
| 20260510002004 | 34 | 38 | 1.0 | 2.0 | 0.00 | 0.00 | 0.00 | 87 | 1018.5 |
| 20260510001503 | 34 | 32 | 1.0 | 2.0 | 0.00 | 0.00 | 0.00 | 88 | 1018.8 |
| 20260510001003 | 34 | 32 | 1.0 | 2.0 | 0.00 | 0.00 | 0.00 | 87 | 1018.6 |
| 20260510000503 | 34 | 36 | 2.0 | 2.0 | 0.00 | 0.00 | 0.00 | 85 | 1018.8 |
| 20260510000003 | 35 | 38 | 2.0 | 2.0 | 0.00 | 0.00 | 0.00 | 85 | 1018.9 |
| 20260509235503 | 35 | 39 | 1.0 | 2.0 | 0.00 | 0.00 | 0.00 | 85 | 1018.9 |
| 20260509235003 | 35 | 37 | 1.0 | 3.0 | 0.00 | 0.00 | 0.00 | 85 | 1018.9 |
| 20260509234712 | 35 | 43 | 1.0 | 3.0 | 0.00 | 0.00 | 0.00 | 85 | 1018.9 |
| 20260509234213 | 35 | 38 | 1.0 | 3.0 | 0.00 | 0.00 | 0.00 | 86 | 1019.0 |
| 20260509233503 | 35 | 26 | 1.0 | 3.0 | 0.00 | 0.00 | 0.00 | 87 | 1019.0 |
| 20260509233213 | 35 | 26 | 2.0 | 3.0 | 0.00 | 0.00 | 0.00 | 86 | 1019.1 |
| 20260509232503 | 35 | 34 | 1.0 | 3.0 | 0.00 | 0.00 | 0.00 | 85 | 1019.2 |
| 20260509232003 | 35 | 48 | 1.0 | 2.0 | 0.00 | 0.00 | 0.00 | 84 | 1019.0 |
| 20260509231714 | 35 | 50 | 0.0 | 2.0 | 0.00 | 0.00 | 0.00 | 84 | 1019.1 |
| 20260509231213 | 36 | 37 | 1.0 | 2.0 | 0.00 | 0.00 | 0.00 | 83 | 1019.2 |
| 20260509230503 | 37 | 37 | 1.0 | 3.0 | 0.00 | 0.00 | 0.00 | 82 | 1019.2 |
| 20260509230003 | 37 | 35 | 2.0 | 3.0 | 0.00 | 0.00 | 0.00 | 82 | 1019.3 |
| 20260509225503 | 37 | 30 | 2.0 | 3.0 | 0.00 | 0.00 | 0.00 | 81 | 1019.2 |
| 20260509225003 | 38 | 24 | 2.0 | 3.0 | 0.00 | 0.00 | 0.00 | 81 | 1019.4 |
| 20260509224714 | 38 | 21 | 2.0 | 3.0 | 0.00 | 0.00 | 0.00 | 83 | 1019.4 |
| 20260509224004 | 37 | 25 | 2.0 | 3.0 | 0.00 | 0.00 | 0.00 | 84 | 1019.6 |
| 20260509223503 | 37 | 36 | 1.0 | 2.0 | 0.00 | 0.00 | 0.00 | 84 | 1019.3 |
| 20260509223003 | 37 | 54 | 0.0 | 2.0 | 0.00 | 0.00 | 0.00 | 83 | 1019.5 |
| 20260509222503 | 37 | 61 | 0.0 | 2.0 | 0.00 | 0.00 | 0.00 | 81 | 1019.3 |
| 20260509222003 | 38 | 51 | 1.0 | 2.0 | 0.00 | 0.00 | 0.00 | 80 | 1019.3 |
| 20260509221503 | 38 | 42 | 1.0 | 2.0 | 0.00 | 0.00 | 0.00 | 80 | 1019.5 |
| 20260509221003 | 38 | 38 | 1.0 | 2.0 | 0.00 | 0.00 | 0.00 | 80 | 1019.4 |
| 20260509220503 | 38 | 46 | 1.0 | 2.0 | 0.00 | 0.00 | 0.00 | 78 | 1019.5 |
| 20260509220004 | 39 | 46 | 1.0 | 2.0 | 0.00 | 0.00 | 0.00 | 76 | 1019.4 |
| 20260509215503 | 40 | 37 | 1.0 | 2.0 | 0.00 | 0.00 | 0.00 | 76 | 1019.5 |
| 20260509215003 | 40 | 33 | 1.0 | 3.0 | 0.00 | 0.00 | 0.00 | 78 | 1019.3 |
| 20260509214503 | 40 | 30 | 2.0 | 3.0 | 0.00 | 0.00 | 0.00 | 77 | 1019.6 |
| 20260509214003 | 40 | 30 | 2.0 | 3.0 | 0.00 | 0.00 | 0.00 | 75 | 1019.5 |
| 20260509213503 | 41 | 47 | 1.0 | 3.0 | 0.00 | 0.00 | 0.00 | 76 | 1019.5 |
| 20260509213003 | 41 | 51 | 1.0 | 2.0 | 0.00 | 0.00 | 0.00 | 75 | 1019.5 |
| 20260509212503 | 41 | 36 | 1.0 | 2.0 | 0.00 | 0.00 | 0.00 | 74 | 1019.6 |
| 20260509212003 | 42 | 30 | 1.0 | 2.0 | 0.00 | 0.00 | 0.00 | 73 | 1019.7 |
| 20260509211503 | 42 | 29 | 1.0 | 2.0 | 0.00 | 0.00 | 0.00 | 72 | 1019.8 |
| 20260509211003 | 42 | 0 | 0.0 | 0.0 | 0.00 | 0.00 | 0.00 | 71 | 1019.6 |
| 20260509210503 | 43 | 135 | 0.0 | 1.0 | 0.00 | 0.00 | 0.00 | 70 | 1019.6 |
| 20260509210003 | 43 | 104 | 0.0 | 1.0 | 0.00 | 0.00 | 0.00 | 70 | 1019.7 |
| 20260509205503 | 43 | 62 | 0.0 | 3.0 | 0.00 | 0.00 | 0.00 | 69 | 1019.6 |
| 20260509205004 | 44 | 43 | 1.0 | 3.0 | 0.00 | 0.00 | 0.00 | 68 | 1019.5 |
| 20260509204503 | 44 | 33 | 2.0 | 3.0 | 0.00 | 0.00 | 0.00 | 67 | 1019.5 |
| 20260509204003 | 45 | 32 | 1.0 | 2.0 | 0.00 | 0.00 | 0.00 | 66 | 1019.6 |
| 20260509203503 | 46 | 30 | 0.0 | 1.0 | 0.00 | 0.00 | 0.00 | 65 | 1019.6 |
| 20260509203003 | 46 | 0 | 0.0 | 0.0 | 0.00 | 0.00 | 0.00 | 61 | 1019.7 |
| 20260509202503 | 47 | 195 | 0.0 | 1.0 | 0.00 | 0.00 | 0.00 | 61 | 1019.4 |
| 20260509202003 | 47 | 175 | 0.0 | 1.0 | 0.00 | 0.00 | 0.00 | 60 | 1019.5 |
| 20260509201503 | 48 | 161 | 0.0 | 1.0 | 0.00 | 0.00 | 0.00 | 59 | 1019.5 |
| 20260509201003 | 48 | 172 | 0.0 | 1.0 | 0.00 | 0.00 | 0.00 | 58 | 1019.4 |
| 20260509200503 | 49 | 211 | 0.0 | 2.0 | 0.00 | 0.00 | 0.00 | 57 | 1019.6 |
| 20260509200003 | 49 | 213 | 0.0 | 2.0 | 0.00 | 0.00 | 0.00 | 56 | 1019.7 |
| 20260509195503 | 49 | 221 | 0.0 | 2.0 | 0.00 | 0.00 | 0.00 | 56 | 1019.5 |
| 20260509195214 | 50 | 224 | 0.0 | 2.0 | 0.00 | 0.00 | 0.00 | 55 | 1019.5 |
| 20260509194503 | 50 | 220 | 0.0 | 2.0 | 0.00 | 0.00 | 0.00 | 54 | 1019.6 |
| 20260509194003 | 51 | 219 | 0.0 | 2.0 | 0.00 | 0.00 | 0.00 | 53 | 1019.6 |
| 20260509193713 | 51 | 215 | 0.0 | 2.0 | 0.00 | 0.00 | 0.00 | 53 | 1019.5 |
| 20260509193003 | 52 | 213 | 0.0 | 2.0 | 0.00 | 0.00 | 0.00 | 51 | 1019.5 |
| 20260509192503 | 52 | 217 | 0.0 | 1.0 | 0.00 | 0.00 | 0.00 | 50 | 1019.5 |